Weather in Tsaritsyno

Russia / Omsk Oblast     54°49′40″N   74°29′14″E
temp.,
°C
wind,
m/s
gust,
m/s
humid.,
%
clouds,
%
prec.,
mm/h
press.,
hPa
HPBL,
m
5 august, thu
thu500:00+15nnw37932 0.0 1011143
03:00+14nnw489176 0.0 1011141
06:00+14nnw38905 0.0 1011146
09:00+20nnw45625 0.0 1011545
12:00+25nnw573934 0.0 10112284
15:00+24nnw3545100 0.0 10101150
18:00+22nne225398 0.0 101028
21:00+19nne12650 0.0 101011
6 august, fri
fri600:00+17nw1171100 0.0 101011
03:00+17w117191 0.0 100911
06:00+18ene116598 0.0 100911
09:00+21w2255100 0.0 1009247
12:00+25s2240100 0.0 10091234
15:00+27sw333864 0.0 10082054
18:00+19nnw3681100 0.6 1009158
21:00+18e228947 0.5 100831
7 august, sat
sat700:00+16ese339217 0.5 100749
03:00+15sse239299 0.0 100742
06:00+16se368878 0.0 1007113
09:00+20se467496 0.3 1007313
12:00+23se456267 1.4 1006727
15:00+27se354758 0.1 10051761
18:00+20ene469085 7.7 1006195
21:00+17e2597100 2.0 1006123
8 august, sun
sun800:00+17e339616 2.5 100548
03:00+16e239469 0.0 100544
06:00+16ene339393 0.1 100550
09:00+19ene3582100 0.6 1005294
12:00+24ese3560100 0.6 10051405
15:00+25ese355429 0.0 10051240
18:00+23wsw437477 0.7 1006459
21:00+18wsw3393100 1.0 100648
9 august, mon
mon900:00+17nnw1195100 1.6 100612
03:00+17nne349681 0.0 100680
06:00+16ne379577 0.2 1006179
09:00+20ene5779100 0.0 1007320
12:00+26e565329 0.0 1008876
15:00+28ene344449 0.0 10081627
18:00+26ne345597 0.1 1009299
21:00+20n498162 0.9 1010141